Regional Weather Roundup
Issued by NWS Newport/Morehead, NC

Current Version | Previous Version | Text Only | Print | Product List | Glossary Off
Versions: 1 2 3 4 5 6 7 8 9 10 11 12 13 14 15 16 17 18 19 20 21 22 23 24 25 26 27 28 29 30 31 32 33 34 35 36 37 38 39 40 41 42 43 44 45 46 47 48 49 50
000 ASUS42 KMHX 230825 RWRMHX WEATHER ROUNDUP FOR EASTERN NORTH CAROLINA NATIONAL WEATHER SERVICE NEWPORT/MOREHEAD CITY NC 400 AM EDT MON OCT 23 2017 NOTE: "FAIR" INDICATES FEW OR NO CLOUDS BELOW 12,000 FEET WITH NO SIGNIFICANT WEATHER AND/OR OBSTRUCTIONS TO VISIBILITY NCZ015>017-031-032-045>047-102-103-230900- NORTH COAST CITY SKY/WX TMP DP RH WIND PRES REMARKS EDENTON MOCLDY 60 60 97 CALM 30.24F FOG ELIZABETH CITY CLEAR 64 64 100 E3 30.24S KITTY HAWK PTSUNNY 67 66 97 CALM 30.22F MANTEO PTCLDY N/A N/A N/A SE3 30.24F $$ NCZ045>047-081-094-103-104-230900- CENTRAL COAST CITY SKY/WX TMP DP RH WIND PRES REMARKS FRISCO PTCLDY 74 66 76 SE13 30.23F $$ NCZ095-097-098-100-101-230900- SOUTHERN COAST CITY SKY/WX TMP DP RH WIND PRES REMARKS BEAUFORT CLEAR 68 62 81 SE5 30.21F CEDAR ISLAND NOT AVBL JACKSONVILLE CLEAR 64 63 96 N3 30.20F PINEY ISLAND N/A N/A N/A N/A S3 30.21F WILMINGTON CLOUDY 73 66 78 SE6 30.19F $$ NCZ011>013-027>030-043-044-078>080-089-090>093-098-230900- COASTAL PLAIN CITY SKY/WX TMP DP RH WIND PRES REMARKS AHOSKIE DRZL/FOG 58 58 100 CALM 30.24F VSB<1/4 CLINTON MOCLDY 65 64 97 CALM 30.20F ELIZABETHTOWN NOT AVBL GOLDSBORO FOG 57 55 94 E6 30.19F VSB 1/2 GREENVILLE FOG 59 59 100 CALM 30.24S VSB 1/4 HAVELOCK CLEAR 63 62 97 SE5 30.22F KENANSVILLE PTCLDY 55 55 100 CALM 30.21F FOG KINSTON PTCLDY 58 57 97 CALM 30.23S NEW BERN FOG 62 61 96 CALM 30.23S VSB 1/4 RICHLANDS CLEAR 60 59 96 NE3 30.21F ROCKY MOUNT FOG 56 56 100 CALM 30.23F VSB 1/4 WASHINGTON PTCLDY 60 59 98 CALM 30.24S WHITEVILLE CLOUDY 69 66 92 E3 30.18S $$ AMZ130-135-150-152-154-156-158-170-250-252-270-ANZ085-086-088-633-658-670-230900- MARINE OBSERVATIONS STATION/POSITION TIME TEMP WIND PRES WAVE SWELL AIR SEA DIR/SP/G HT/PER HT/PER (UTC) (F) (DEG/KT/KT) (MB) (FT/S) (FT/S) CHESAPEAKE LIGHT NOT AVBL 64 E VA BEACH 0750 70 69 CALM 1025.1 3/ 9 DUCK 0800 70 70 110/ 6/ 6 1023.5 2 E DUCK 0800 70 N/A 2/ 9 OREGON INLET 0800 70 72 120/ 4/ 6 1023.6 13E OREGON INLT 0748 73 N/A 3/ 9 2/ 9 HATTERAS CG 0800 75 73 140/ 10/ 13 1023.3 DIAMOND BUOY 0750 77 81 160/ 12/ 16 1023.5 3/ 9 2/ 9 CAPE LOOKOUT 0800 74 150/ 11/ 12 1022.7 BEAUFORT LAB 0800 71 73 140/ 4/ 5 1023.1 30 SE NEW RVR IN 0808 76 150/ 14/ 19 1022.4 30 SE NEW RVR IN NOT AVBL 27 SE WRIGHTSVLE 0808 76 76 150/ 14/ 19 1022.1 5 SE WRIGHTSVLE 0708 75 74 130/ 14/ 19 1022.5 225 S CAPE HAT 0750 76 80 110/ 12/ 16 1022.6 4/ 8 3/ 8 41 SE CHARLESTON 0810 79 79 150/ 19/ 23 1019.7 $$

USA.gov is the U.S. government's official web portal to all federal, state and local government web resources and services.